RUK4CF GMTT-EGCC

Flight info

Callsign RUK4CF
Flight time 2h 44m
Altitude 38000
Route LAMAD M143 GALTO N869 BLN DCT MORAL DCT BEXID DCT VTB DCT SIE DCT XERMA DCT ARLUN DCT BUGIX DCT UNGAS DCT DELOG DCT RUSIB DCT NOZHU DCT SHIRI DCT TOJAQ DCT EPACE DCT ACCOP P16 AXCIS
Aircraft B738/M-SDE2E3FGHIRWXY/LB1

Departure

Time 2026-04-20 18:01
Airport Tangier Ibn Battuta Airport (GMTT)

Arrival

Time 2026-04-20 20:46
Airport Manchester Airport (EGCC)
Time Latitude Longitude Altitude Speed Heading
2026-04-20 17:28 35.72536 -5.91275 64 ft 0 kts 356°
2026-04-20 17:51 35.72534 -5.91275 64 ft 1 kts 356°
2026-04-20 17:51 35.72517 -5.91274 58 ft 3 kts 358°
2026-04-20 17:52 35.72497 -5.91273 58 ft 3 kts 356°
2026-04-20 17:52 35.72477 -5.91270 58 ft 3 kts 346°
2026-04-20 17:52 35.72457 -5.91264 65 ft 3 kts 347°
2026-04-20 17:52 35.72439 -5.91259 62 ft 2 kts 342°
2026-04-20 17:53 35.72437 -5.91258 62 ft 1 kts 342°
2026-04-20 17:55 35.72443 -5.91268 58 ft 3 kts 298°
2026-04-20 17:55 35.72441 -5.91313 64 ft 8 kts 265°
2026-04-20 17:55 35.72435 -5.91413 60 ft 15 kts 266°
2026-04-20 17:55 35.72428 -5.91558 55 ft 18 kts 273°
2026-04-20 17:56 35.72479 -5.91663 60 ft 14 kts 320°
2026-04-20 17:56 35.72571 -5.91692 59 ft 14 kts 355°
2026-04-20 17:56 35.72678 -5.91702 59 ft 18 kts 356°
2026-04-20 17:56 35.72762 -5.91710 59 ft 18 kts 355°
2026-04-20 17:57 35.72913 -5.91726 51 ft 13 kts 344°
2026-04-20 17:57 35.72956 -5.91823 57 ft 16 kts 277°
2026-04-20 17:57 35.72966 -5.91922 54 ft 20 kts 276°
2026-04-20 17:57 35.72984 -5.92115 53 ft 26 kts 277°
2026-04-20 17:58 35.73006 -5.92354 50 ft 31 kts 276°
2026-04-20 17:58 35.73032 -5.92622 47 ft 29 kts 276°
2026-04-20 17:58 35.73054 -5.92861 44 ft 27 kts 274°
2026-04-20 17:58 35.73075 -5.93084 41 ft 26 kts 276°
2026-04-20 17:59 35.73094 -5.93294 38 ft 24 kts 277°
2026-04-20 17:59 35.73114 -5.93497 36 ft 25 kts 276°
2026-04-20 17:59 35.73135 -5.93719 33 ft 27 kts 276°
2026-04-20 17:59 35.73152 -5.93914 31 ft 18 kts 276°
2026-04-20 18:00 35.73191 -5.94028 29 ft 13 kts 319°
2026-04-20 18:00 35.73276 -5.94047 29 ft 13 kts 18°
2026-04-20 18:00 35.73341 -5.93987 31 ft 12 kts 79°
2026-04-20 18:00 35.73329 -5.93876 32 ft 25 kts 96°
2026-04-20 18:01 35.73281 -5.93358 37 ft 96 kts 96°
2026-04-20 18:01 35.73192 -5.92283 53 ft 154 kts 89°
2026-04-20 18:01 35.73107 -5.90894 579 ft 169 kts 94°
2026-04-20 18:01 35.72960 -5.89510 1547 ft 159 kts 97°
2026-04-20 18:02 35.72806 -5.88103 2107 ft 174 kts 97°
2026-04-20 18:02 35.72645 -5.86475 2408 ft 206 kts 96°
2026-04-20 18:02 35.72477 -5.84643 2639 ft 230 kts 97°
2026-04-20 18:02 35.72301 -5.82613 3025 ft 246 kts 97°
2026-04-20 18:03 35.72151 -5.80406 3314 ft 268 kts 88°
2026-04-20 18:03 35.72445 -5.78096 4056 ft 274 kts 77°
2026-04-20 18:03 35.72929 -5.75806 4827 ft 281 kts 75°
2026-04-20 18:03 35.73444 -5.73506 5720 ft 281 kts 75°
2026-04-20 18:04 35.73960 -5.71169 6519 ft 286 kts 75°
2026-04-20 18:04 35.74478 -5.68782 7293 ft 289 kts 75°
2026-04-20 18:04 35.74989 -5.66373 8099 ft 292 kts 75°
2026-04-20 18:04 35.75501 -5.63915 8794 ft 298 kts 75°
2026-04-20 18:05 35.76519 -5.58941 10303 ft 310 kts 76°
2026-04-20 18:05 35.77062 -5.56273 10536 ft 333 kts 76°
2026-04-20 18:05 35.77640 -5.53426 10897 ft 350 kts 76°
2026-04-20 18:06 35.78237 -5.50475 11475 ft 358 kts 76°
2026-04-20 18:06 35.78782 -5.47675 12212 ft 359 kts 78°
2026-04-20 18:06 35.79243 -5.44657 12912 ft 363 kts 81°
2026-04-20 18:06 35.79650 -5.41590 13689 ft 366 kts 82°
2026-04-20 18:07 35.80056 -5.38464 14288 ft 371 kts 82°
2026-04-20 18:07 35.80472 -5.35318 15008 ft 372 kts 81°
2026-04-20 18:07 35.80898 -5.32155 15657 ft 376 kts 81°
2026-04-20 18:07 35.81336 -5.28941 16276 ft 380 kts 81°
2026-04-20 18:08 35.81774 -5.25755 16922 ft 383 kts 81°
2026-04-20 18:08 35.82223 -5.22492 17539 ft 388 kts 81°
2026-04-20 18:08 35.82744 -5.19208 17992 ft 397 kts 73°
2026-04-20 18:08 35.83908 -5.16046 18100 ft 414 kts 58°
2026-04-20 18:09 35.85626 -5.13110 18219 ft 429 kts 48°
2026-04-20 18:09 35.87831 -5.10623 18297 ft 442 kts 33°
2026-04-20 18:09 35.90453 -5.08540 18461 ft 451 kts 31°
2026-04-20 18:09 35.93147 -5.06494 18787 ft 456 kts 30°
2026-04-20 18:10 35.95854 -5.04439 19233 ft 458 kts 31°
2026-04-20 18:10 35.98570 -5.02350 19665 ft 460 kts 31°
2026-04-20 18:10 36.01261 -5.00252 20057 ft 463 kts 31°
2026-04-20 18:10 36.03987 -4.98105 20448 ft 466 kts 31°
2026-04-20 18:11 36.06722 -4.95941 20828 ft 468 kts 31°
2026-04-20 18:11 36.09475 -4.93757 21214 ft 471 kts 31°
2026-04-20 18:11 36.12252 -4.91557 21584 ft 474 kts 31°
2026-04-20 18:11 36.15041 -4.89348 21931 ft 477 kts 31°
2026-04-20 18:12 36.17809 -4.87167 22264 ft 479 kts 31°
2026-04-20 18:12 36.20639 -4.84955 22610 ft 482 kts 31°
2026-04-20 18:12 36.23489 -4.82732 22954 ft 484 kts 31°
2026-04-20 18:12 36.26349 -4.80499 23276 ft 486 kts 31°
2026-04-20 18:13 36.29239 -4.78239 23573 ft 489 kts 31°
2026-04-20 18:13 36.32083 -4.76010 23845 ft 491 kts 31°
2026-04-20 18:13 36.34980 -4.73736 24117 ft 492 kts 31°
2026-04-20 18:13 36.37892 -4.71447 24398 ft 494 kts 31°
2026-04-20 18:14 36.40804 -4.69155 24659 ft 496 kts 31°
2026-04-20 18:14 36.43699 -4.66874 24909 ft 498 kts 31°
2026-04-20 18:14 36.46634 -4.64561 25154 ft 500 kts 31°
2026-04-20 18:14 36.49586 -4.62231 25423 ft 501 kts 31°
2026-04-20 18:15 36.52534 -4.59903 25764 ft 500 kts 31°
2026-04-20 18:15 36.55433 -4.57610 26152 ft 498 kts 31°
2026-04-20 18:15 36.58373 -4.55284 26560 ft 497 kts 31°
2026-04-20 18:15 36.61295 -4.52971 26925 ft 496 kts 31°
2026-04-20 18:16 36.64179 -4.50685 27257 ft 496 kts 31°
2026-04-20 18:16 36.67094 -4.48372 27621 ft 495 kts 31°
2026-04-20 18:16 36.70007 -4.46058 28008 ft 494 kts 31°
2026-04-20 18:16 36.72878 -4.43775 28393 ft 494 kts 31°
2026-04-20 18:17 36.75771 -4.41473 28764 ft 493 kts 31°
2026-04-20 18:17 36.78675 -4.39161 29165 ft 492 kts 31°
2026-04-20 18:17 36.81582 -4.36892 29576 ft 490 kts 28°
2026-04-20 18:17 36.84626 -4.34989 29970 ft 488 kts 22°
2026-04-20 18:18 36.87698 -4.33308 30299 ft 487 kts 21°
2026-04-20 18:18 36.90822 -4.31663 30627 ft 486 kts 21°
2026-04-20 18:18 36.93934 -4.30033 30969 ft 484 kts 21°
2026-04-20 18:18 36.97041 -4.28389 31302 ft 483 kts 21°
2026-04-20 18:19 37.00133 -4.26728 31639 ft 482 kts 21°
2026-04-20 18:19 37.03176 -4.25075 31934 ft 481 kts 21°
2026-04-20 18:19 37.06248 -4.23393 32260 ft 480 kts 21°
2026-04-20 18:19 37.09313 -4.21707 32599 ft 479 kts 21°
2026-04-20 18:20 37.12358 -4.20028 32965 ft 477 kts 21°
2026-04-20 18:20 37.15395 -4.18352 33291 ft 476 kts 21°
2026-04-20 18:20 37.18395 -4.16696 33576 ft 475 kts 21°
2026-04-20 18:20 37.21426 -4.15022 33880 ft 474 kts 21°
2026-04-20 18:21 37.24459 -4.13346 34145 ft 473 kts 21°
2026-04-20 18:21 37.27442 -4.11697 34360 ft 473 kts 21°
2026-04-20 18:21 37.30461 -4.10027 34544 ft 474 kts 21°
2026-04-20 18:21 37.33494 -4.08347 34756 ft 473 kts 21°
2026-04-20 18:22 37.36473 -4.06696 34997 ft 472 kts 22°
2026-04-20 18:22 37.39485 -4.05024 35223 ft 472 kts 22°
2026-04-20 18:22 37.42496 -4.03352 35424 ft 472 kts 22°
2026-04-20 18:22 37.45504 -4.01681 35634 ft 472 kts 22°
2026-04-20 18:23 37.48509 -4.00009 35852 ft 471 kts 22°
2026-04-20 18:23 37.51505 -3.98341 36059 ft 471 kts 22°
2026-04-20 18:23 37.54505 -3.96669 36274 ft 470 kts 22°
2026-04-20 18:23 37.57464 -3.95018 36423 ft 471 kts 22°
2026-04-20 18:24 37.60471 -3.93340 36622 ft 470 kts 22°
2026-04-20 18:24 37.63433 -3.91684 36835 ft 469 kts 22°
2026-04-20 18:24 37.66425 -3.90011 37031 ft 469 kts 22°
2026-04-20 18:24 37.69418 -3.88335 37204 ft 469 kts 22°
2026-04-20 18:25 37.72406 -3.86661 37409 ft 468 kts 22°
2026-04-20 18:25 37.75357 -3.85007 37596 ft 468 kts 22°
2026-04-20 18:25 37.78340 -3.83332 37768 ft 468 kts 22°
2026-04-20 18:25 37.81324 -3.81655 37880 ft 467 kts 22°
2026-04-20 18:26 37.87240 -3.78327 37908 ft 467 kts 22°
2026-04-20 18:26 37.93195 -3.74970 37908 ft 467 kts 22°
2026-04-20 18:27 37.99120 -3.71624 37900 ft 468 kts 22°
2026-04-20 18:27 38.05042 -3.68271 37902 ft 468 kts 22°
2026-04-20 18:28 38.10990 -3.64900 37902 ft 468 kts 22°
2026-04-20 18:28 38.17142 -3.62251 37900 ft 464 kts
2026-04-20 18:29 38.23521 -3.61526 37901 ft 462 kts
2026-04-20 18:29 38.29954 -3.61013 37908 ft 462 kts
2026-04-20 18:30 38.36333 -3.60449 37904 ft 462 kts
2026-04-20 18:30 38.42760 -3.59835 37907 ft 462 kts
2026-04-20 18:31 38.49187 -3.59207 37905 ft 461 kts
2026-04-20 18:31 38.55566 -3.58584 37918 ft 461 kts
2026-04-20 18:32 38.61969 -3.57959 37910 ft 461 kts
2026-04-20 18:32 38.68330 -3.57338 37913 ft 461 kts
2026-04-20 18:33 38.74756 -3.56709 37916 ft 461 kts
2026-04-20 18:33 38.81119 -3.56084 37910 ft 461 kts
2026-04-20 18:34 38.87524 -3.55454 37912 ft 461 kts
2026-04-20 18:34 38.93892 -3.54825 37911 ft 461 kts
2026-04-20 18:35 39.00297 -3.54193 37914 ft 460 kts
2026-04-20 18:35 39.06659 -3.53567 37909 ft 460 kts
2026-04-20 18:36 39.13054 -3.52934 37914 ft 460 kts
2026-04-20 18:36 39.19413 -3.52301 37915 ft 460 kts
2026-04-20 18:37 39.25821 -3.51660 37918 ft 460 kts
2026-04-20 18:37 39.32213 -3.51020 37918 ft 460 kts
2026-04-20 18:38 39.38564 -3.50383 37918 ft 460 kts
2026-04-20 18:38 39.44958 -3.49739 37918 ft 460 kts
2026-04-20 18:39 39.51351 -3.49093 37920 ft 460 kts
2026-04-20 18:39 39.57712 -3.48451 37921 ft 460 kts
2026-04-20 18:40 39.64111 -3.47812 37917 ft 460 kts
2026-04-20 18:40 39.70466 -3.47174 37925 ft 460 kts
2026-04-20 18:41 39.76868 -3.46532 37930 ft 461 kts
2026-04-20 18:41 39.83256 -3.46717 37934 ft 457 kts 352°
2026-04-20 18:42 39.89573 -3.47454 37929 ft 457 kts 351°
2026-04-20 18:42 39.95888 -3.48186 37938 ft 458 kts 352°
2026-04-20 18:43 40.02249 -3.48862 37930 ft 458 kts 352°
2026-04-20 18:43 40.08626 -3.49510 37936 ft 458 kts 352°
2026-04-20 18:44 40.14958 -3.50148 37933 ft 459 kts 352°
2026-04-20 18:44 40.20972 -3.50758 37940 ft 459 kts 352°
2026-04-20 18:45 40.27325 -3.51405 37943 ft 459 kts 352°
2026-04-20 18:45 40.33711 -3.52056 37917 ft 459 kts 352°
2026-04-20 18:46 40.39017 -3.52599 37906 ft 459 kts 352°
2026-04-20 18:46 40.45412 -3.53253 37924 ft 459 kts 352°
2026-04-20 18:47 40.51753 -3.53904 37912 ft 459 kts 352°
2026-04-20 18:47 40.58129 -3.54559 37918 ft 458 kts 352°
2026-04-20 18:48 40.64450 -3.55210 37922 ft 458 kts 352°
2026-04-20 18:48 40.70805 -3.55866 37983 ft 457 kts 352°
2026-04-20 18:49 40.77151 -3.56521 37990 ft 456 kts 352°
2026-04-20 18:49 40.83456 -3.57174 37978 ft 456 kts 352°
2026-04-20 18:50 40.89786 -3.57831 37978 ft 455 kts 352°
2026-04-20 18:50 40.96111 -3.58487 37977 ft 455 kts 352°
2026-04-20 18:51 41.02436 -3.59145 37971 ft 455 kts 352°
2026-04-20 18:51 41.08709 -3.59797 37971 ft 454 kts 352°
2026-04-20 18:52 41.15025 -3.60455 37966 ft 454 kts 352°
2026-04-20 18:52 41.21372 -3.60745 37974 ft 456 kts 355°
2026-04-20 18:53 41.27686 -3.60832 37963 ft 456 kts 355°
2026-04-20 18:53 41.34058 -3.60955 37960 ft 456 kts 355°
2026-04-20 18:54 41.40386 -3.61112 37952 ft 456 kts 355°
2026-04-20 18:54 41.46735 -3.61274 37947 ft 456 kts 355°
2026-04-20 18:55 41.53055 -3.61409 37946 ft 456 kts 355°
2026-04-20 18:55 41.59420 -3.61408 37941 ft 457 kts 356°
2026-04-20 18:56 41.65759 -3.61383 37934 ft 457 kts 356°
2026-04-20 18:56 41.72120 -3.61373 37936 ft 457 kts 356°
2026-04-20 18:57 41.78494 -3.61371 37930 ft 457 kts 356°
2026-04-20 18:57 41.84849 -3.61371 37930 ft 457 kts 356°
2026-04-20 18:58 41.91184 -3.61368 37932 ft 457 kts 356°
2026-04-20 18:58 41.97555 -3.61365 37934 ft 457 kts 356°
2026-04-20 18:59 42.03884 -3.61385 37937 ft 456 kts 354°
2026-04-20 18:59 42.10229 -3.61784 37946 ft 454 kts 352°
2026-04-20 19:00 42.16518 -3.62273 37957 ft 454 kts 353°
2026-04-20 19:00 42.22861 -3.62705 37964 ft 454 kts 353°
2026-04-20 19:01 42.29139 -3.63103 37971 ft 454 kts 353°
2026-04-20 19:01 42.35463 -3.63515 37967 ft 454 kts 352°
2026-04-20 19:02 42.41668 -3.64532 37969 ft 450 kts 347°
2026-04-20 19:02 42.47863 -3.65878 37959 ft 450 kts 347°
2026-04-20 19:03 42.54067 -3.67168 37957 ft 450 kts 347°
2026-04-20 19:03 42.60242 -3.68398 37942 ft 450 kts 347°
2026-04-20 19:04 42.66442 -3.69631 37949 ft 450 kts 347°
2026-04-20 19:04 42.72618 -3.70796 37938 ft 450 kts 348°
2026-04-20 19:05 42.78858 -3.71846 37940 ft 450 kts 348°
2026-04-20 19:05 42.85048 -3.72879 37939 ft 451 kts 348°
2026-04-20 19:06 42.91296 -3.73937 37955 ft 450 kts 348°
2026-04-20 19:06 42.97508 -3.75000 37943 ft 451 kts 348°
2026-04-20 19:07 43.03709 -3.76066 37962 ft 451 kts 348°
2026-04-20 19:07 43.09954 -3.77142 37964 ft 451 kts 348°
2026-04-20 19:08 43.19297 -3.78755 37965 ft 452 kts 348°
2026-04-20 19:09 43.25562 -3.79839 37972 ft 453 kts 348°
2026-04-20 19:09 43.31791 -3.80919 37966 ft 454 kts 348°
2026-04-20 19:10 43.38068 -3.82009 37975 ft 454 kts 348°
2026-04-20 19:10 43.44343 -3.83101 37966 ft 454 kts 348°
2026-04-20 19:11 43.50581 -3.84189 37970 ft 453 kts 348°
2026-04-20 19:11 43.56851 -3.85285 37967 ft 453 kts 348°
2026-04-20 19:12 43.63061 -3.86372 37966 ft 452 kts 348°
2026-04-20 19:12 43.69309 -3.87469 37959 ft 451 kts 348°
2026-04-20 19:13 43.75545 -3.88566 37963 ft 451 kts 348°
2026-04-20 19:13 43.81745 -3.89659 37963 ft 450 kts 348°
2026-04-20 19:14 43.87969 -3.90758 37960 ft 449 kts 348°
2026-04-20 19:14 43.94148 -3.91852 37962 ft 449 kts 348°
2026-04-20 19:15 44.00366 -3.92954 37966 ft 449 kts 348°
2026-04-20 19:15 44.06528 -3.94049 37963 ft 448 kts 348°
2026-04-20 19:16 44.12731 -3.95153 37967 ft 448 kts 348°
2026-04-20 19:16 44.18900 -3.96253 37969 ft 448 kts 348°
2026-04-20 19:17 44.25111 -3.97361 37971 ft 449 kts 348°
2026-04-20 19:17 44.31288 -3.98468 37966 ft 449 kts 348°
2026-04-20 19:18 44.37579 -3.98756 37983 ft 454 kts 356°
2026-04-20 19:18 44.43869 -3.98479 37976 ft 455 kts 357°
2026-04-20 19:19 44.50223 -3.98185 37971 ft 455 kts 357°
2026-04-20 19:19 44.56570 -3.97931 37976 ft 456 kts 357°
2026-04-20 19:20 44.62902 -3.97701 37972 ft 456 kts 356°
2026-04-20 19:20 44.69221 -3.97476 37976 ft 457 kts 356°
2026-04-20 19:21 44.75595 -3.97250 37976 ft 457 kts 356°
2026-04-20 19:21 44.81922 -3.97023 37980 ft 457 kts 356°
2026-04-20 19:22 44.88291 -3.96794 37981 ft 457 kts 357°
2026-04-20 19:22 44.94654 -3.96564 37978 ft 457 kts 357°
2026-04-20 19:23 45.00992 -3.96335 37982 ft 457 kts 357°
2026-04-20 19:23 45.07353 -3.96104 37982 ft 457 kts 357°
2026-04-20 19:24 45.13725 -3.95873 37982 ft 456 kts 357°
2026-04-20 19:24 45.20049 -3.95643 37988 ft 456 kts 357°
2026-04-20 19:25 45.26414 -3.95410 37991 ft 456 kts 357°
2026-04-20 19:25 45.32734 -3.95179 37989 ft 456 kts 357°
2026-04-20 19:26 45.39055 -3.94948 37990 ft 455 kts 357°
2026-04-20 19:26 45.45398 -3.94715 37997 ft 455 kts 357°
2026-04-20 19:27 45.51701 -3.94483 37997 ft 455 kts 357°
2026-04-20 19:27 45.58031 -3.94249 37998 ft 454 kts 357°
2026-04-20 19:28 45.64361 -3.94015 38000 ft 454 kts 357°
2026-04-20 19:28 45.70680 -3.93781 38000 ft 454 kts 357°
2026-04-20 19:29 45.76965 -3.93548 38005 ft 453 kts 357°
2026-04-20 19:29 45.83250 -3.93314 38010 ft 453 kts 357°
2026-04-20 19:30 45.89560 -3.93078 38008 ft 453 kts 357°
2026-04-20 19:30 45.95868 -3.92842 38004 ft 452 kts 357°
2026-04-20 19:31 46.02138 -3.92607 38015 ft 452 kts 357°
2026-04-20 19:31 46.08436 -3.92371 38019 ft 452 kts 357°
2026-04-20 19:32 46.14735 -3.92134 38020 ft 452 kts 357°
2026-04-20 19:32 46.20990 -3.91898 38024 ft 451 kts 357°
2026-04-20 19:33 46.27286 -3.91660 38028 ft 451 kts 357°
2026-04-20 19:33 46.33545 -3.91423 38027 ft 451 kts 357°
2026-04-20 19:34 46.38779 -3.91224 38031 ft 452 kts 357°
2026-04-20 19:34 46.45084 -3.90984 38030 ft 452 kts 357°
2026-04-20 19:35 46.51339 -3.90745 38038 ft 452 kts 357°
2026-04-20 19:35 46.57641 -3.90504 38040 ft 452 kts 357°
2026-04-20 19:36 46.63901 -3.90264 38043 ft 452 kts 357°
2026-04-20 19:36 46.70206 -3.90022 38046 ft 452 kts 357°
2026-04-20 19:37 46.76464 -3.89781 38055 ft 452 kts 356°
2026-04-20 19:37 46.82766 -3.89538 38050 ft 452 kts 356°
2026-04-20 19:38 46.89035 -3.89295 38051 ft 452 kts 356°
2026-04-20 19:38 46.95334 -3.89051 38065 ft 452 kts 356°
2026-04-20 19:39 47.01639 -3.88805 38058 ft 452 kts 356°
2026-04-20 19:39 47.07898 -3.88561 38056 ft 452 kts 356°
2026-04-20 19:40 47.14202 -3.88315 38069 ft 452 kts 356°
2026-04-20 19:40 47.20500 -3.88069 38060 ft 452 kts 356°
2026-04-20 19:41 47.26743 -3.87823 38062 ft 451 kts 356°
2026-04-20 19:41 47.33037 -3.87576 38069 ft 451 kts 356°
2026-04-20 19:42 47.39286 -3.87329 38067 ft 451 kts 356°
2026-04-20 19:42 47.45582 -3.87080 38074 ft 451 kts 356°
2026-04-20 19:43 47.50793 -3.86874 38075 ft 450 kts 356°
2026-04-20 19:43 47.58093 -3.86584 38079 ft 450 kts 356°
2026-04-20 19:44 47.64363 -3.86335 38084 ft 450 kts 357°
2026-04-20 19:44 47.70590 -3.86086 38087 ft 449 kts 357°
2026-04-20 19:45 47.76848 -3.85836 38088 ft 448 kts 357°
2026-04-20 19:45 47.83089 -3.85586 38098 ft 448 kts 357°
2026-04-20 19:46 47.89286 -3.85337 38097 ft 448 kts 357°
2026-04-20 19:46 47.95531 -3.85085 38105 ft 447 kts 357°
2026-04-20 19:47 48.01718 -3.84835 38101 ft 447 kts 357°
2026-04-20 19:47 48.07943 -3.84583 38108 ft 446 kts 357°
2026-04-20 19:48 48.14126 -3.84331 38103 ft 446 kts 357°
2026-04-20 19:48 48.20340 -3.84078 38112 ft 445 kts 357°
2026-04-20 19:49 48.26507 -3.83827 38126 ft 445 kts 357°
2026-04-20 19:49 48.32715 -3.83573 38125 ft 444 kts 357°
2026-04-20 19:50 48.38864 -3.83321 38132 ft 444 kts 357°
2026-04-20 19:50 48.45057 -3.83066 38137 ft 444 kts 357°
2026-04-20 19:51 48.51208 -3.82813 38142 ft 444 kts 357°
2026-04-20 19:51 48.57410 -3.82557 38133 ft 445 kts 357°
2026-04-20 19:52 48.63584 -3.82301 38134 ft 446 kts 357°
2026-04-20 19:52 48.69811 -3.82042 38131 ft 446 kts 357°
2026-04-20 19:53 48.75998 -3.81783 38138 ft 447 kts 357°
2026-04-20 19:53 48.82228 -3.81522 38144 ft 447 kts 357°
2026-04-20 19:54 48.88464 -3.81258 38162 ft 448 kts 357°
2026-04-20 19:54 48.94679 -3.80994 38168 ft 448 kts 357°
2026-04-20 19:55 49.00881 -3.80708 38167 ft 448 kts 358°
2026-04-20 19:55 49.07122 -3.80330 38173 ft 448 kts 358°
2026-04-20 19:56 49.13361 -3.79936 38177 ft 448 kts 358°
2026-04-20 19:56 49.19616 -3.79548 38182 ft 448 kts 358°
2026-04-20 19:57 49.25818 -3.79168 38186 ft 448 kts 358°
2026-04-20 19:57 49.32069 -3.78785 38188 ft 448 kts 358°
2026-04-20 19:58 49.38269 -3.78404 38188 ft 448 kts 358°
2026-04-20 19:58 49.44512 -3.78019 38192 ft 447 kts 358°
2026-04-20 19:59 49.50689 -3.77636 38196 ft 447 kts 358°
2026-04-20 19:59 49.56911 -3.77250 38198 ft 447 kts 358°
2026-04-20 20:00 49.63130 -3.76860 38204 ft 447 kts 358°
2026-04-20 20:00 49.69349 -3.76473 38205 ft 447 kts 358°
2026-04-20 20:01 49.75573 -3.75854 38210 ft 448 kts 360°
2026-04-20 20:01 49.81751 -3.75075 38210 ft 448 kts
2026-04-20 20:02 49.87963 -3.74304 38220 ft 447 kts 360°
2026-04-20 20:02 49.94172 -3.73558 38206 ft 447 kts 360°
2026-04-20 20:03 50.00365 -3.72822 38220 ft 447 kts 360°
2026-04-20 20:03 50.06574 -3.72084 38219 ft 447 kts 360°
2026-04-20 20:04 50.12674 -3.71355 38224 ft 447 kts 360°
2026-04-20 20:04 50.18881 -3.70610 38226 ft 447 kts 360°
2026-04-20 20:05 50.25094 -3.69862 38230 ft 446 kts 360°
2026-04-20 20:05 50.31261 -3.69117 38244 ft 446 kts
2026-04-20 20:06 50.37458 -3.68366 38241 ft 446 kts
2026-04-20 20:06 50.43660 -3.67545 38231 ft 447 kts
2026-04-20 20:07 50.49799 -3.66317 38238 ft 447 kts
2026-04-20 20:07 50.55979 -3.65111 38243 ft 446 kts
2026-04-20 20:08 50.62152 -3.63943 38239 ft 445 kts
2026-04-20 20:08 50.68304 -3.62775 38244 ft 444 kts
2026-04-20 20:09 50.74407 -3.61607 38237 ft 444 kts
2026-04-20 20:09 50.80537 -3.60428 38238 ft 443 kts
2026-04-20 20:10 50.86674 -3.59245 38243 ft 442 kts
2026-04-20 20:10 50.92741 -3.58080 38241 ft 441 kts
2026-04-20 20:11 50.98840 -3.56907 38244 ft 440 kts
2026-04-20 20:11 51.04927 -3.55722 38250 ft 439 kts
2026-04-20 20:12 51.10953 -3.54544 38245 ft 438 kts
2026-04-20 20:12 51.17016 -3.53352 38254 ft 438 kts
2026-04-20 20:13 51.26103 -3.51571 38268 ft 437 kts
2026-04-20 20:13 51.32147 -3.50397 38262 ft 437 kts
2026-04-20 20:14 51.38158 -3.49221 38270 ft 438 kts
2026-04-20 20:14 51.44234 -3.48022 38268 ft 439 kts
2026-04-20 20:15 51.50308 -3.46818 38271 ft 440 kts
2026-04-20 20:15 51.56367 -3.45613 38270 ft 441 kts
2026-04-20 20:16 51.62489 -3.44392 38266 ft 443 kts
2026-04-20 20:16 51.68612 -3.43167 38269 ft 445 kts
2026-04-20 20:17 51.74780 -3.41929 38288 ft 446 kts
2026-04-20 20:17 51.80953 -3.40684 38291 ft 447 kts
2026-04-20 20:18 51.87121 -3.39434 38291 ft 449 kts
2026-04-20 20:18 51.93325 -3.38205 38285 ft 449 kts
2026-04-20 20:19 51.99570 -3.37654 37964 ft 453 kts 358°
2026-04-20 20:19 52.02724 -3.37499 37490 ft 451 kts 358°
2026-04-20 20:19 52.05820 -3.37324 36838 ft 450 kts 358°
2026-04-20 20:20 52.08944 -3.37115 36247 ft 448 kts 357°
2026-04-20 20:20 52.12068 -3.36890 35582 ft 449 kts 357°
2026-04-20 20:20 52.14139 -3.36737 35134 ft 449 kts 356°
2026-04-20 20:20 52.17264 -3.36510 34458 ft 450 kts 356°
2026-04-20 20:21 52.20398 -3.36286 33645 ft 451 kts 355°
2026-04-20 20:21 52.23540 -3.36059 32867 ft 450 kts 355°
2026-04-20 20:21 52.26677 -3.35830 32094 ft 449 kts 355°
2026-04-20 20:21 52.29766 -3.35602 31334 ft 448 kts 355°
2026-04-20 20:22 52.32875 -3.35372 30565 ft 447 kts 354°
2026-04-20 20:22 52.35994 -3.35138 29627 ft 447 kts 354°
2026-04-20 20:22 52.39090 -3.34911 28715 ft 445 kts 355°
2026-04-20 20:22 52.42185 -3.34681 27813 ft 444 kts 355°
2026-04-20 20:23 52.45276 -3.34454 26869 ft 444 kts 355°
2026-04-20 20:23 52.48379 -3.34224 25940 ft 445 kts 356°
2026-04-20 20:23 52.51455 -3.33995 25279 ft 439 kts 356°
2026-04-20 20:23 52.54486 -3.33769 24592 ft 435 kts 357°
2026-04-20 20:24 52.57453 -3.33550 23928 ft 430 kts 357°
2026-04-20 20:24 52.60451 -3.33326 23095 ft 427 kts 358°
2026-04-20 20:24 52.63412 -3.32721 22353 ft 427 kts
2026-04-20 20:24 52.66258 -3.31357 21675 ft 427 kts 17°
2026-04-20 20:25 52.69024 -3.29617 20993 ft 422 kts 17°
2026-04-20 20:25 52.71720 -3.27945 20325 ft 418 kts 17°
2026-04-20 20:25 52.74423 -3.26304 19933 ft 408 kts 17°
2026-04-20 20:25 52.77085 -3.24714 19579 ft 411 kts 18°
2026-04-20 20:26 52.79826 -3.23083 19210 ft 420 kts 18°
2026-04-20 20:26 52.82583 -3.21433 18810 ft 420 kts 18°
2026-04-20 20:26 52.85317 -3.19791 18391 ft 415 kts 18°
2026-04-20 20:26 52.87990 -3.18185 17978 ft 412 kts 18°
2026-04-20 20:27 52.90763 -3.17088 17574 ft 407 kts
2026-04-20 20:27 52.93587 -3.16962 17238 ft 407 kts
2026-04-20 20:27 52.96423 -3.16823 16846 ft 406 kts
2026-04-20 20:27 52.99251 -3.16629 16464 ft 405 kts
2026-04-20 20:28 53.02059 -3.16409 16096 ft 402 kts
2026-04-20 20:28 53.04818 -3.16187 15734 ft 400 kts
2026-04-20 20:28 53.07588 -3.15966 15367 ft 395 kts
2026-04-20 20:28 53.10321 -3.15750 15010 ft 391 kts
2026-04-20 20:29 53.13048 -3.15536 14658 ft 392 kts
2026-04-20 20:29 53.15778 -3.15320 14292 ft 392 kts
2026-04-20 20:29 53.18512 -3.15103 13916 ft 391 kts
2026-04-20 20:29 53.21190 -3.14889 13515 ft 388 kts
2026-04-20 20:30 53.23864 -3.14676 13135 ft 380 kts
2026-04-20 20:30 53.26469 -3.14469 12792 ft 368 kts
2026-04-20 20:30 53.28988 -3.14270 12457 ft 357 kts
2026-04-20 20:30 53.31440 -3.14076 12134 ft 348 kts
2026-04-20 20:31 53.33834 -3.13887 11832 ft 340 kts
2026-04-20 20:31 53.36168 -3.13687 11522 ft 332 kts
2026-04-20 20:31 53.38342 -3.12624 11239 ft 323 kts 28°
2026-04-20 20:31 53.40107 -3.10408 10952 ft 316 kts 46°
2026-04-20 20:32 53.41360 -3.07491 10669 ft 302 kts 58°
2026-04-20 20:32 53.42409 -3.04503 10384 ft 290 kts 59°
2026-04-20 20:32 53.43373 -3.01661 10306 ft 275 kts 60°
2026-04-20 20:32 53.44299 -2.98926 9942 ft 269 kts 60°
2026-04-20 20:33 53.45216 -2.96232 9667 ft 261 kts 60°
2026-04-20 20:33 53.46118 -2.93592 9404 ft 260 kts 59°
2026-04-20 20:33 53.47021 -2.90958 9137 ft 261 kts 59°
2026-04-20 20:33 53.47932 -2.88303 8882 ft 262 kts 59°
2026-04-20 20:34 53.48843 -2.85647 8642 ft 262 kts 59°
2026-04-20 20:34 53.49755 -2.82987 8393 ft 262 kts 59°
2026-04-20 20:34 53.50657 -2.80361 8144 ft 262 kts 59°
2026-04-20 20:34 53.51571 -2.77702 7909 ft 262 kts 59°
2026-04-20 20:35 53.52484 -2.75041 7665 ft 262 kts 59°
2026-04-20 20:35 53.53378 -2.72429 7419 ft 259 kts 62°
2026-04-20 20:35 53.53843 -2.69966 7212 ft 256 kts 85°
2026-04-20 20:35 53.53547 -2.67074 7012 ft 252 kts 114°
2026-04-20 20:36 53.52447 -2.64818 6836 ft 251 kts 144°
2026-04-20 20:36 53.50844 -2.63784 6677 ft 246 kts 172°
2026-04-20 20:36 53.49158 -2.63619 6526 ft 240 kts 176°
2026-04-20 20:36 53.47510 -2.63566 6416 ft 232 kts 177°
2026-04-20 20:37 53.45933 -2.63532 6361 ft 227 kts 178°
2026-04-20 20:37 53.44375 -2.63507 6335 ft 221 kts 178°
2026-04-20 20:37 53.42849 -2.63488 6331 ft 217 kts 177°
2026-04-20 20:37 53.41379 -2.63475 6311 ft 202 kts 177°
2026-04-20 20:38 53.40015 -2.63466 6211 ft 194 kts 177°
2026-04-20 20:38 53.38669 -2.63463 5989 ft 193 kts 178°
2026-04-20 20:38 53.37337 -2.63467 5794 ft 194 kts 178°
2026-04-20 20:38 53.35983 -2.63474 5594 ft 194 kts 178°
2026-04-20 20:39 53.34645 -2.63336 5376 ft 191 kts 158°
2026-04-20 20:39 53.33466 -2.62359 5188 ft 188 kts 149°
2026-04-20 20:39 53.32306 -2.61332 4981 ft 188 kts 149°
2026-04-20 20:39 53.31161 -2.60336 4772 ft 188 kts 149°
2026-04-20 20:40 53.29995 -2.59331 4558 ft 188 kts 149°
2026-04-20 20:40 53.28813 -2.58323 4345 ft 188 kts 149°
2026-04-20 20:40 53.27647 -2.57336 4142 ft 188 kts 149°
2026-04-20 20:40 53.26480 -2.56351 3944 ft 188 kts 150°
2026-04-20 20:41 53.25379 -2.55271 3720 ft 183 kts 132°
2026-04-20 20:41 53.24855 -2.53456 3574 ft 172 kts 90°
2026-04-20 20:41 53.25012 -2.51510 3538 ft 168 kts 80°
2026-04-20 20:41 53.25225 -2.49581 3502 ft 175 kts 78°
2026-04-20 20:42 53.25780 -2.47705 3218 ft 182 kts 56°
2026-04-20 20:42 53.26522 -2.45981 2938 ft 180 kts 54°
2026-04-20 20:42 53.27279 -2.44341 2672 ft 176 kts 53°
2026-04-20 20:42 53.28037 -2.42756 2440 ft 172 kts 54°
2026-04-20 20:43 53.28775 -2.41218 2198 ft 167 kts 54°
2026-04-20 20:43 53.29490 -2.39729 1966 ft 163 kts 54°
2026-04-20 20:43 53.30191 -2.38270 1753 ft 159 kts 53°
2026-04-20 20:43 53.30874 -2.36849 1531 ft 154 kts 54°
2026-04-20 20:44 53.31523 -2.35499 1328 ft 142 kts 53°
2026-04-20 20:44 53.32127 -2.34244 1144 ft 141 kts 52°
2026-04-20 20:44 53.32722 -2.32945 917 ft 140 kts 55°
2026-04-20 20:44 53.33342 -2.31706 702 ft 140 kts 51°
2026-04-20 20:45 53.33965 -2.30431 531 ft 143 kts 52°
2026-04-20 20:45 53.34585 -2.29130 318 ft 143 kts 52°
2026-04-20 20:45 53.35190 -2.27879 239 ft 129 kts 51°
2026-04-20 20:45 53.35651 -2.26923 259 ft 65 kts 51°
2026-04-20 20:46 53.35791 -2.26683 263 ft 12 kts
2026-04-20 20:46 53.35859 -2.26695 260 ft 12 kts 351°
2026-04-20 20:46 53.35915 -2.26739 255 ft 8 kts 288°
2026-04-20 20:46 53.35932 -2.26824 254 ft 8 kts 301°
2026-04-20 20:47 53.35979 -2.26836 254 ft 7 kts 28°
2026-04-20 20:47 53.36016 -2.26770 254 ft 8 kts 51°
2026-04-20 20:47 53.36062 -2.26756 254 ft 8 kts 319°
2026-04-20 20:47 53.36084 -2.26793 254 ft 0 kts 315°